Regional Weather Roundup
Issued by NWS

Home | Current Version | Previous Version | Graphics & Text | Print | Product List | Glossary On
Versions: 1 2 3 4 5 6 7 8 9 10 11 12 13 14 15 16 17 18 19 20 21 22 23 24 25 26 27
000
ASUS45 KSLC 180510
RWRUT

UTAH REGIONAL WEATHER ROUNDUP
NATIONAL WEATHER SERVICE SALT LAKE CITY UT
1000 PM MST TUE JAN 17 2017

UTZ001>011-023>025-180600-

NORTHERN UTAH

CITY           SKY/WX    TMP DP  RH WIND       PRES   REMARKS
BRIGHAM CITY     N/A     11   7  81 NW8       30.26R WCI   0
HILL AFB       PTCLDY    17   8  68 E14       30.22F WCI   3
LOGAN          CLEAR      3  -1  83 E3        30.26F
OGDEN          PTCLDY    15   9  76 S7        30.23F WCI   5
SALT LAKE CITY PTCLDY    23  18  81 CALM      30.25S
TOOELE VALLEY  MOCLDY    25  23  93 CALM      30.25F FOG
WENDOVER       CLOUDY    23  18  80 E3        30.25F
HEBER CITY     PTCLDY     1  -2  85 CALM      30.20S
WEST JORDAN    PTCLDY    22  22 100 CALM      30.24F

$$

UTZ011>015-024>027-180600-

CENTRAL/NORTHEAST UTAH

CITY           SKY/WX    TMP DP  RH WIND       PRES   REMARKS
PROVO AIRPORT  PTCLDY    21  18  88 SE5       30.26R WCI  15
MOAB/CANYONLAN CLEAR     31  26  82 CALM      30.17S
DELTA          CLEAR     21  21 100 E3        30.23S
PRICE          PTCLDY    12   4  70 N5        30.17S WCI   4
ROOSEVELT      CLOUDY    19  14  79 CALM      30.30S
VERNAL         CLOUDY    17  13  84 CALM      30.27F

$$

UTZ013>016-019>022-027-180600-

SOUTHERN UTAH

CITY           SKY/WX    TMP DP  RH WIND       PRES   REMARKS
BRYCE CANYON   CLEAR      2  -2  83 W7        30.18R WCI -11
CEDAR CITY     CLEAR     24  18  77 CALM      30.18S
MILFORD        CLEAR     23  19  85 W6        30.21R WCI  16
ST GEORGE      PTCLDY    39  27  60 CALM      30.20S
HANKSVILLE     PTCLDY    32  27  80 MISG      30.21F
BLANDING       CLEAR     31  29  90 N7        30.22S WCI  25

$$

REGIONAL REPORTS     COLORADO/ARIZONA

CITY           SKY/WX    TMP DP  RH WIND       PRES   REMARKS
CRAIG, CO      FOG       12   8  84 E5        30.21F VSB 1/4 WCI   4
GRAND JUNCTION CLOUDY    31  28  89 CALM      30.17S
RIFLE, CO      CLOUDY    26  23  88 CALM      30.18S
MONTROSE, CO   CLOUDY    36  30  79 CALM      30.18S
CORTEZ, CO     CLEAR     33  31  92 CALM      30.14S
COLORADO CITY    N/A     28  27  93 SE5       30.20S WCI  23
PAGE, AZ       CLEAR     37  25  61 SW3       30.16S
GRAND CANYON   MOCLDY    26  25  96 CALM      30.18R
KINGMAN, AZ    CLEAR     36  21  54 SE7       30.16R WCI  30
FLAGSTAFF, AZ  CLEAR     26  23  88 CALM      30.17R

$$

REGIONAL REPORTS    NEVADA/IDAHO/WYOMING

CITY           SKY/WX    TMP DP  RH WIND       PRES   REMARKS
LAS VEGAS, NV  CLEAR     45  25  45 SW3       30.14S
ELY, NY        CLEAR     10   5  80 SE13      30.17R WCI  -5
ELKO, NV       MOCLDY    11   5  77 NE9       30.18S WCI  -2
POCATELLO, ID  CLOUDY     4   1  88 N7        30.19F WCI  -8
BURLEY, ID     CLEAR     14   8  77 NE12      30.13R WCI   0
FORT BRIDGER,    N/A      1  -3  83 CALM      30.16F
EVANSTON, WY   CLOUDY    15   5  64 S9        30.12F WCI   3
ROCK SPRINGS,  CLOUDY     1  -4  79 CALM      30.13F

$$




USA.gov is the U.S. government's official web portal to all federal, state and local government web resources and services.